Location: Peebles
(55.6412°N, 3.1714°W)
Time: 14:46:34
(UTC+01:00)

Cosmos 1777 Rocket - Pass Details

Date: 26 September 2021
Orbit: 759 x 775 km, 74.0° (Epoch: 17 October)

Event Time Altitude Azimuth Distance (km) Brightness Sun altitude
Rises 20:20:48 0° 193° (SSW) 3,227 7.2 -12.0°
Reaches altitude 10° 20:23:12 10° 190° (S) 2,302 6.4 -12.4°
Maximum altitude 20:28:20 60° 111° (ESE) 874 4.0 -13.1°
Drops below altitude 10° 20:33:28 10° 33° (NNE) 2,308 6.3 -13.7°
Sets 20:35:52 0° 30° (NNE) 3,237 7.1 -14.1°
